{"data":{"norad_id":45153,"intl_designator":"2020-008Y","name":"ONEWEB-0048","alt_names":[],"object_type":"PAYLOAD","status":"ACTIVE","operator":null,"country":"UK","launch_date":"2020-02-06","launch_site_code":"TYMSC","launch_vehicle":null,"mission":null,"orbit_class":"UNKNOWN","rcs_meters":null,"size_class":null,"mass_kg":null,"dimensions":null,"purposes":["comms"],"wikipedia_slug":null,"has_3d_model":false,"image_url":null,"decayed_at":null,"tle_current":{"epoch":"2026-05-25T03:51:10.770048Z","epoch_age_seconds":57654,"freshness":"FRESH","line1":"1 45153U 20008Y   26145.16054132  .00000677  00000+0  19016-2 0  9996","line2":"2 45153  87.8853  40.8717 0001779  77.6347 282.4979 13.10373138304798","mean_motion":13.10373138,"eccentricity":0.0001779,"inclination_deg":87.8853,"raan_deg":40.8717,"arg_perigee_deg":77.6347,"mean_anomaly_deg":282.4979,"bstar":0.0019016,"rev_number":30479,"period_min":109.89236258291,"perigee_km":1220.3638957953,"apogee_km":1223.0679234606,"semimajor_km":7599.852909628,"source":"CELESTRAK","updated_at":"2026-05-25T13:38:22.337540Z"}}}